Find Kosmos-2571 subsat

NORAD ID: 58428 Int'l Des: 2023-165 Owner: VVKOV Country: RU operational
LEOCIRCULAR

Current View

Loading 3D Globe...

About Kosmos-2571 subsat

Kosmos-2571 subsat (NORAD 58428) is a satellite launched Oct 27, 2023 by VVKOV of RU. It operates in LEO, CIRCULAR orbit with a mass of 10.00 kg.

Upcoming Passes

Passes for default location (London). Set your location on the main map for personalized predictions.

Altitude History

Loading altitude history...

Two-Line Element Set

1 58428U 23165D 26195.18404640 -.00000031 00000-0 31591-4 0 9992
2 58428 67.1477 221.4734 0018893 298.6780 61.2405 13.97429577134609
Epoch: Jul 14, 2026 • Age: 12 hours

Current Status

Altitude 898.0 km
Apogee / Perigee N/A
Velocity 7.41 km/s
Sub-Earth Point -4.26°S, 39.63°E
Launch Date Oct 27, 2023
Age 2.7 years
Type other

Technical Details

Classification Payload
Mass 10.00 kg
Dry Mass 10.00 kg
Total Mass 10.00 kg
Length 0.30 m
Diameter 0.20 m
Span 0.30 m
Shape Box
Manufacturer TSSKBP/ARSLO
Bus Type Unk
Phase Status In Orbit
Owner/State VVKOV/RU

Most Searched